Racecast

Austin DePue

Temperance Bedford (MI) · 12 · SECMI D1MONROE · Compare head to head

Athlete rating 129.9 2019 XC season
Best race 158.5 XC
Races 82
Seasons 6 2014 — 2019

RankedNation #6934·MI #873·MI D1 #608·SEC #75·Team #25 ?

Rating scale ?

Cross Country

2019 XC 121.6

Temperance Bedford (MI) · Grade 12

Date Meet Event Result Place Rating Difficulty PR/SR Flags
2019-10-26 Lake Erie Metro Park OFFICIAL 5000m 17:26.9 33rd · 5th on team 128.6 +0.055 ★CR CSR RSR
2019-10-17 Hudson Mills Metropark - OFFICIAL 5000m 17:25.2 25th · 3rd on team 126.7 +0.036 ★PR ★CR SR CSR RSR
2019-10-12 Munson Park 5000m 17:50.7 5th · 2nd on team 125.8 +0.054 ★CR CSR RSR
2019-10-05 Portage West MS 5000m 17:36 174th · 4th on team 125.0 +0.038 ★CR SR CSR RSR
2019-09-28 Lake Erie Metro Park OFFICIAL 5000m 18:39.4 8th · 1st on team 119.5 +0.055 CSR
2019-09-24 Indian Creek OFFICIAL 5000m 18:34 42nd · 9th on team 120.1 +0.039 CSR RSR
2019-09-10 Hudson Mills Metropark - OFFICIAL 5000m 19:13.7 81st · 7th on team 114.1 +0.036 CSR RSR
2019-09-07 Hedges Boyer Park 5000m 18:14.2 175th · 5th on team 112.7 -0.036 SR CSR RSR

2018 XC 119.2

Temperance Bedford (MI) · Grade 11

Date Meet Event Result Place Rating Difficulty PR/SR Flags
2018-11-03 Michigan International Speedway (MIS) 5000m 18:47.7 244th · 7th on team 116.5 +0.022 CSR
2018-10-27 Lake Erie Metro Park OFFICIAL 5000m 18:03.9 8th · 1st on team 124.3 +0.055 CSR RSR
2018-10-18 Hudson Mills Metropark - OFFICIAL 5000m 18:05.1 32nd · 1st on team 121.6 +0.036 CSR
2018-10-13 Munson Park 5000m 18:25.8 23rd · 7th on team 121.1 +0.054 CR CSR
2018-10-09 Indian Creek OFFICIAL 5000m 19:00 12th · 6th on team 118.4 +0.039 CSR
2018-10-06 Portage West MS 5000m 18:17.7 49th · 1st on team 121.1 +0.038 CSR
2018-09-29 Lake Erie Metro Park OFFICIAL 5000m 18:09.2 10th · 4th on team 123.7 +0.055 CSR RSR
2018-09-25 Cass Benton Park OFFICIAL 5000m 20:24.3 54th · 9th on team 113.5 +0.091 ★CR CSR
2018-09-22 Ella Sharp Park OFFICIAL 5000m 18:02.1 124th · 6th on team 121.5 +0.038 ★CR SR CSR RSR
2018-09-06 Willow Metropark OFFICIAL 5000m 20:15.4 111th · 10th on team 109.3 +0.048 ★CR SR CSR
2018-08-31 Oakland University 4000m 14:43 6th · 1st on team 120.0 +0.054 SR CSR RSR

2017 XC 121.0

Temperance Bedford (MI) · Grade 10

Date Meet Event Result Place Rating Difficulty PR/SR Flags
2017-11-04 Michigan International Speedway (MIS) 5000m 17:27.1 210th · 5th on team 124.0 +0.022 PR ★CR SR CSR
2017-10-28 Lake Erie Metro Park OFFICIAL 5000m 17:43.9 44th · 6th on team 125.8 +0.055 CR CSR RSR
2017-10-19 Hudson Mills Metropark - OFFICIAL 5000m 17:49.5 19th · 2nd on team 123.9 +0.036 CSR RSR
2017-10-10 Indian Creek OFFICIAL 5000m 18:21.4 18th · 7th on team 120.3 +0.039 ★CR CSR
2017-10-07 Portage West MS 5000m 18:21.5 32nd · 1st on team 121.2 +0.038 CSR
2017-09-30 Lake Erie Metro Park OFFICIAL 5000m 18:05.3 18th · 4th on team 122.7 +0.055 CR CSR
2017-09-22 Ella Sharp Park OFFICIAL 5000m 19:04.4 8th · 5th on team 117.8 +0.038 CSR
2017-09-12 Hudson Mills Metropark - OFFICIAL 5000m 17:54 65th · 7th on team 122.8 +0.036 CSR RSR
2017-09-09 Hedges Boyer Park 5000m 17:38.9 124th · 6th on team 115.9 -0.036 PR ★CR SR CSR
2017-09-01 Oakland University 4000m 14:14.5 52nd · 6th on team 121.1 +0.054 ★PR ★CR SR CSR RSR
2017-08-26 Walsh Park 5000m 17:56.4 17th · 6th on team 116.1 -0.009 ★CR SR CSR RSR

2016 XC 117.2

Temperance Bedford (MI) · Grade 9

Date Meet Event Result Place Rating Difficulty PR/SR Flags
2016-11-05 Michigan International Speedway (MIS) 5000m 17:46.4 217th · 5th on team 122.5 +0.022 CR CSR
2016-10-20 Hudson Mills Metropark - OFFICIAL 5000m 18:04.4 35th · 7th on team 121.2 +0.036
2016-10-15 Hudson Mills Metropark - OFFICIAL 5000m 17:46.3 51st · 7th on team 124.5 +0.036 PR CR SR CSR RSR
2016-10-08 Portage West MS 5000m 18:15 75th · 2nd on team 120.7 +0.038 PR CR SR CSR
2016-10-01 Pearson's Metro Park 5000m 18:37.1 5th · 3rd on team 111.1 -0.022 PR ★CR SR CSR
2016-09-27 Pioneer HS 5000m 18:50.5 18th · 1st on team 121.2 +0.067 ★CR CSR RSR
2016-09-23 Ella Sharp Park OFFICIAL 5000m 18:51.1 26th · 5th on team 117.5 +0.038 CR CSR
2016-09-17 Springfield Oaks County Park OFFICIAL 5000m 21:00 85th · 6th on team 110.8 +0.067 ★CR CSR
2016-09-13 Heritage Park (Adrian) OFFICIAL 5000m 20:04.7 82nd · 9th on team 114.8 +0.084 ★CR CSR
2016-09-10 Hedges Boyer Park 5000m 18:44.2 97th · 3rd on team 109.8 -0.036 PR CR SR CSR
2016-09-02 Oakland University 4000m 14:44.8 5th · 2nd on team 118.4 +0.054 PR CR SR CSR RSR
2016-08-25 Heritage Park (Adrian) OFFICIAL 5000m 20:07.4 7th · 6th on team 114.5 +0.084 PR CR SR CSR RSR

2015 XC 138.8

Temperance Bedford (MI) · Grade 8

Date Meet Event Result Place Rating Difficulty PR/SR Flags
2015-10-24 Hudson Mills Metropark - OFFICIAL 2735m 11:08.3 8th · 1st on team 124.6 ★PR ★CR SR CSR
2015-10-17 Munson Park 3200m 11:44.3 4th · 2nd on team 143.1 +0.034
2015-10-14 Munson Park 3200m 11:37.3 2nd · 1st on team 143.5 +0.034 ★CR CSR
2015-09-30 Hudson Mills Metropark - OFFICIAL 3200m 11:23.7 1st · 1st on team 152.4 +0.062 ★PR ★CR SR CSR
2015-09-16 Mill Pond Park 3621m 12:52.4 2nd · 1st on team 158.5 +0.099 ★PR ★CR ★R SR CSR RSR
2015-09-12 Hedges Boyer Park 3200m 11:50.6 1st · 1st on team 124.5 -0.089 PR ★CR SR CSR
2015-08-27 Eastwood HS 3200m 12:02.2 3rd · 1st on team 125.4 -0.060 PR ★CR SR CSR RSR

2014 XC 107.0

Temperance Bedford (MI) · Grade 7

Date Meet Event Result Place Rating Difficulty PR/SR Flags
2014-10-11 Munson Park 2500m 12:38.8 22nd · 6th on team 99.6 ★PR ★CR SR CSR
2014-10-04 Fostoria HS 3200m 14:09.7 110th · 12th on team 106.7 -0.073 ★CR CSR
2014-09-27 Pearson's Metro Park 3200m 13:19.9 58th · 9th on team 115.6 -0.067 PR ★CR SR CSR
2014-09-24 Hudson Mills Metropark - OFFICIAL 2735m 14:12.7 68th · 11th on team 99.2 PR CR SR CSR
2014-09-20 Sterling State Park 3218m 13:36.8 39th · 8th on team 128.1 +0.057 ★PR ★CR R SR CSR RSR
2014-09-17 Indian Creek OFFICIAL 2500m 13:14.4 8th · 8th on team 90.8 PR ★CR SR CSR
2014-09-06 Hedges Boyer Park 3200m 13:22.6 34th · 1st on team 110.1 -0.089 PR CR R SR CSR RSR
2014-08-27 Indian Creek OFFICIAL 3200m 15:57 11th · 11th on team 106.0 +0.038 PR ★CR R SR CSR RSR

Track & Field

2019 TF 102.3

Temperance Bedford (MI) · Grade 11

Date Meet Event Result Place Rating Difficulty PR/SR Flags
2019-04-30 SEC-R: Monroe & Bedford @ Skyline 1600m 5:18.39 27th · 6th on team 107.5 -0.033
2019-04-23 SEC Red Division - Bedford vs Saline 1600m 5:17.96 21st · 7th on team 108.5 -0.033 SR RSR
2019-03-23 Bedford @ Ida Scrimmage 800m 2:44.02 14th · 10th on team 94.0 -0.022 SR RSR
2019-03-23 Bedford @ Ida Scrimmage 1600m 5:49.7 16th · 13th on team 99.1 -0.022 SR RSR

2018 TF 103.5

Temperance Bedford (MI) · Grade 10

Date Meet Event Result Place Rating Difficulty PR/SR Flags
2018-05-17 Eagle Boys Invite 800m 2:25.58 34th · 2nd on team 104.5 -0.033 ★PR SR
2018-05-17 Eagle Boys Invite 1600m 5:10.06 41st · 1st on team 110.5 -0.033 SR RSR
2018-05-07 SEC Red: Huron @ Bedford 800m 2:40 8th · 8th on team 95.1 -0.033 SR
2018-05-07 SEC Red: Huron @ Bedford 1600m 5:15 8th · 8th on team 108.7 -0.033 SR RSR
2018-05-01 SEC Red: Bedford & Skyline @ Monroe 1600m 5:33.22 12th · 3rd on team 102.9 -0.032 SR
2018-05-01 SEC Red: Bedford & Skyline @ Monroe 3200m 12:21.76 16th · 4th on team 100.7 -0.032
2018-04-24 Saline/Bedford Dual 3200m 11:35.84 9th · 3rd on team 105.1 -0.042 SR RSR
2018-04-10 SEC Red Division - Pioneer @ Bedford 3200m 12:11 5th · 5th on team 100.8 -0.033 SR RSR

2017 TF 105.1

Temperance Bedford (MI) · Grade 9

Date Meet Event Result Place Rating Difficulty PR/SR Flags
2017-05-25 Beck Freshman Invitational 3200m 11:13.2 2nd · 2nd on team 110.4 -0.022 ★PR SR RSR
2017-05-25 Beck Freshman Invitational 1600m 5:07 2nd · 2nd on team 112.4 -0.022 ★PR SR RSR
2017-05-17 Eagle Boys Invite 800m 2:31.72 55th · 2nd on team 100.4 -0.033
2017-05-17 Eagle Boys Invite 100m 15.22 127th · 12th on team -0.033 ★PR SR
2017-04-25 SEC Red: Bedford @ Skyline 1600m 5:20.29 12th · 5th on team 106.2 -0.033 PR SR RSR
2017-04-25 SEC Red: Bedford @ Skyline 800m 2:30.64 14th · 9th on team 100.3 -0.033
2017-04-12 Whitmer Freshman Invitational 800m 2:26 2nd · 1st on team 102.6 -0.040 PR SR
2017-03-28 SEC Red: Bedford @ Pioneer 1600m 5:30.83 12th · 3rd on team 103.5 -0.028 PR SR RSR

2016 TF 112.9

Temperance Bedford (MI) · Grade 8

Date Meet Event Result Place Rating Difficulty PR/SR Flags
2016-05-18 Saline Hornet MS Relays 1600m 5:38.79 11th · 4th on team 116.9 -0.042 PR SR RSR
2016-05-17 Bedford @ Chelsea lj 12-04.00 -0.029
2016-05-17 Bedford @ Chelsea 400m 1:11.72 6th · 2nd on team -0.029 ★PR SR
2016-05-17 Bedford @ Chelsea 800m 2:46.99 5th · 4th on team 108.9 -0.029 PR SR RSR

2015 TF 115.8

Temperance Bedford (MI) · Grade 7

Date Meet Event Result Place Rating Difficulty PR/SR Flags
2015-05-20 Saline Hornet MS Relays 1600m 5:42.9 11th · 2nd on team 115.8 -0.042 PR SR RSR